Overview Statistics Trail Chart Weather Telemetry Raw packets
 

This is the latest recevied weather packets stored in our database for station/object OK2VOP-6. If no packets are shown the sender has not sent any weather packets the latest 10 day(s).

<< 1 2 3 4 5 6 >>
Time Temp. Humidity Pressure Rain* Wind** Luminosity Snow
1788661408 13.33° C 45% - 0 mm - - -
1788660203 13.33° C 45% - 0 mm - - -
1788658998 13.33° C 45% - 0 mm - - -
1788657793 13.89° C 43% - 0 mm - - -
1788656589 13.89° C 42% - 0 mm - - -
1788655384 13.89° C 42% - 0 mm - - -
1788654181 13.33° C 43% - 0 mm - - -
1788652974 13.89° C 43% - 0 mm - - -
1788651771 13.89° C 42% - 0 mm - - -
1788650564 14.44° C 39% - 0 mm - - -
1788649359 15.56° C 37% - 0 mm - - -
1788648155 16.11° C 36% - 0 mm - - -
1788646949 16.67° C 34% - 0 mm - - -
1788645743 16.67° C 35% - 0 mm - - -
1788644538 16.67° C 35% - 0 mm - - -
1788643334 17.22° C 35% - 0 mm - - -
1788642129 16.67° C 36% - 0 mm - - -
1788640924 17.78° C 35% - 0 mm - - -
1788639720 18.33° C 31% - 0 mm - - -
1788638516 19.44° C 29% - 0 mm - - -
1788637310 20° C 27% - 0 mm - - -
1788636105 20.56° C 27% - 0 mm - - -
1788634900 20.56° C 27% - 0 mm - - -
1788633695 21.11° C 24% - 0 mm - - -
1788632490 21.11° C 22% - 0 mm - - -

* Rain latest hour (hover to see other rain measurements)
** Current wind speed in m/s (hover to see current wind gust speed)